Time,TemperatureF,DewpointF,PressureIn,WindDirection,WindDirectionDegrees,WindSpeedMPH,WindSpeedGustMPH,Humidity,HourlyPrecipIn,Conditions,Clouds,dailyrainin,SoftwareType,DateUTC
2013-08-07 00:01:00,61.5,56.3,30.10,SW,220,0.0,0.0,83,0.00,,,0.00,WeatherCatV1.14B232,2013-08-07 04:01:00,
2013-08-07 00:06:00,61.6,56.4,30.10,SW,220,0.0,0.0,83,0.00,,,0.00,WeatherCatV1.14B232,2013-08-07 04:06:00,
2013-08-07 00:11:00,61.6,56.4,30.10,SW,220,0.0,0.0,83,0.00,,,0.00,WeatherCatV1.14B232,2013-08-07 04:11:00,
2013-08-07 00:16:00,61.5,56.3,30.10,SW,220,0.0,0.0,83,0.00,,,0.00,WeatherCatV1.14B232,2013-08-07 04:16:00,
2013-08-07 00:21:00,61.5,56.3,30.10,SW,220,0.0,0.0,83,0.00,,,0.00,WeatherCatV1.14B232,2013-08-07 04:21:00,
2013-08-07 00:26:00,61.4,56.5,30.10,SW,220,0.0,0.0,84,0.00,,,0.00,WeatherCatV1.14B232,2013-08-07 04:26:00,
2013-08-07 00:31:00,61.4,56.5,30.10,SW,220,0.0,0.0,84,0.00,,,0.00,WeatherCatV1.14B232,2013-08-07 04:31:00,
2013-08-07 00:36:00,61.4,56.5,30.10,SW,220,0.0,0.0,84,0.00,,,0.00,WeatherCatV1.14B232,2013-08-07 04:36:00,
2013-08-07 00:41:00,61.3,56.4,30.10,SW,220,0.0,0.0,84,0.00,,,0.00,WeatherCatV1.14B232,2013-08-07 04:41:00,
2013-08-07 00:46:00,61.3,56.4,30.10,SW,220,0.0,0.0,84,0.00,,,0.00,WeatherCatV1.14B232,2013-08-07 04:46:00,
2013-08-07 00:51:00,61.2,56.3,30.10,SW,220,0.0,0.0,84,0.00,,,0.00,WeatherCatV1.14B232,2013-08-07 04:51:00,
2013-08-07 00:56:00,61.1,56.6,30.10,SW,220,0.0,0.0,85,0.00,,,0.00,WeatherCatV1.14B232,2013-08-07 04:56:00,
2013-08-07 01:01:00,60.9,56.4,30.11,SW,220,0.0,0.0,85,0.00,,,0.00,WeatherCatV1.14B232,2013-08-07 05:01:00,
2013-08-07 01:06:00,60.6,56.4,30.11,SW,220,0.0,0.0,86,0.00,,,0.00,WeatherCatV1.14B232,2013-08-07 05:06:00,
2013-08-07 01:11:00,60.4,56.5,30.11,SW,220,0.0,0.0,87,0.00,,,0.00,WeatherCatV1.14B232,2013-08-07 05:11:00,
2013-08-07 01:16:00,60.2,56.3,30.10,SW,220,0.0,0.0,87,0.00,,,0.00,WeatherCatV1.14B232,2013-08-07 05:16:00,
2013-08-07 01:21:00,60.0,56.4,30.11,SW,220,0.0,0.0,88,0.00,,,0.00,WeatherCatV1.14B232,2013-08-07 05:21:00,
2013-08-07 01:26:00,59.8,56.2,30.11,SW,220,0.0,0.0,88,0.00,,,0.00,WeatherCatV1.14B232,2013-08-07 05:26:00,
2013-08-07 01:31:00,59.8,56.2,30.11,SW,220,0.0,0.0,88,0.00,,,0.00,WeatherCatV1.14B232,2013-08-07 05:31:00,
2013-08-07 01:36:00,59.7,56.4,30.11,SW,220,0.0,0.0,89,0.00,,,0.00,WeatherCatV1.14B232,2013-08-07 05:36:00,
2013-08-07 01:41:00,59.8,56.5,30.11,SW,220,0.0,0.0,89,0.00,,,0.00,WeatherCatV1.14B232,2013-08-07 05:41:00,
2013-08-07 01:46:00,59.7,56.4,30.11,SW,220,0.0,0.0,89,0.00,,,0.00,WeatherCatV1.14B232,2013-08-07 05:46:00,
2013-08-07 01:51:00,59.8,56.5,30.11,SW,220,1.0,1.0,89,0.00,,,0.00,WeatherCatV1.14B232,2013-08-07 05:51:00,
2013-08-07 01:56:00,60.0,57.1,30.11,SW,220,0.0,1.0,90,0.00,,,0.00,WeatherCatV1.14B232,2013-08-07 05:56:00,
2013-08-07 02:01:00,60.1,56.8,30.11,SW,220,0.0,0.0,89,0.00,,,0.00,WeatherCatV1.14B232,2013-08-07 06:01:00,
2013-08-07 02:06:00,60.2,56.9,30.11,SW,220,0.0,0.0,89,0.00,,,0.00,WeatherCatV1.14B232,2013-08-07 06:06:00,
2013-08-07 02:11:00,60.4,57.1,30.10,SW,220,0.0,0.0,89,0.00,,,0.00,WeatherCatV1.14B232,2013-08-07 06:11:00,
2013-08-07 02:16:00,60.6,57.0,30.10,SW,220,0.0,0.0,88,0.00,,,0.00,WeatherCatV1.14B232,2013-08-07 06:16:00,
2013-08-07 02:21:00,60.7,57.1,30.11,SW,220,0.0,1.0,88,0.00,,,0.00,WeatherCatV1.14B232,2013-08-07 06:21:00,
2013-08-07 02:26:00,60.9,57.0,30.11,SW,220,0.0,1.0,87,0.00,,,0.00,WeatherCatV1.14B232,2013-08-07 06:26:00,
2013-08-07 02:31:00,61.1,57.2,30.11,SW,220,1.0,1.0,87,0.00,,,0.00,WeatherCatV1.14B232,2013-08-07 06:31:00,
2013-08-07 02:36:00,61.2,57.3,30.11,SW,220,0.0,0.0,87,0.00,,,0.00,WeatherCatV1.14B232,2013-08-07 06:36:00,
2013-08-07 02:41:00,61.2,57.3,30.11,SW,220,0.0,1.0,87,0.00,,,0.00,WeatherCatV1.14B232,2013-08-07 06:41:00,
2013-08-07 02:46:00,61.3,57.4,30.11,SW,220,0.0,1.0,87,0.00,,,0.00,WeatherCatV1.14B232,2013-08-07 06:46:00,
2013-08-07 02:51:00,61.5,57.3,30.11,SW,221,0.0,0.0,86,0.00,,,0.00,WeatherCatV1.14B232,2013-08-07 06:51:00,
2013-08-07 02:56:00,61.7,57.5,30.11,SW,221,1.0,1.0,86,0.00,,,0.00,WeatherCatV1.14B232,2013-08-07 06:56:00,
2013-08-07 03:01:00,61.9,57.7,30.12,SW,214,0.0,1.0,86,0.00,,,0.00,WeatherCatV1.14B232,2013-08-07 07:01:00,
2013-08-07 03:06:00,62.1,57.5,30.12,SW,214,0.0,1.0,85,0.00,,,0.00,WeatherCatV1.14B232,2013-08-07 07:06:00,
2013-08-07 03:11:00,62.1,57.9,30.12,SW,214,1.0,1.0,86,0.00,,,0.00,WeatherCatV1.14B232,2013-08-07 07:11:00,
2013-08-07 03:16:00,62.1,57.5,30.12,SW,214,0.0,1.0,85,0.00,,,0.00,WeatherCatV1.14B232,2013-08-07 07:16:00,
2013-08-07 03:21:00,62.2,57.6,30.12,SW,214,0.0,0.0,85,0.00,,,0.00,WeatherCatV1.14B232,2013-08-07 07:21:00,
2013-08-07 03:26:00,62.4,57.5,30.12,SW,214,0.0,0.0,84,0.00,,,0.00,WeatherCatV1.14B232,2013-08-07 07:26:00,
2013-08-07 03:31:00,62.6,57.7,30.12,SW,214,0.0,0.0,84,0.00,,,0.00,WeatherCatV1.14B232,2013-08-07 07:31:00,
2013-08-07 03:36:00,62.7,57.5,30.11,SW,214,0.0,0.0,83,0.00,,,0.00,WeatherCatV1.14B232,2013-08-07 07:36:00,
2013-08-07 03:41:00,62.9,58.0,30.11,SW,214,1.0,1.0,84,0.00,,,0.00,WeatherCatV1.14B232,2013-08-07 07:41:00,
2013-08-07 03:46:00,63.0,57.8,30.11,SW,214,0.0,1.0,83,0.00,,,0.00,WeatherCatV1.14B232,2013-08-07 07:46:00,
2013-08-07 03:51:00,63.0,57.8,30.12,SW,214,0.0,0.0,83,0.00,,,0.00,WeatherCatV1.14B232,2013-08-07 07:51:00,
2013-08-07 03:56:00,63.0,57.8,30.11,SW,214,0.0,0.0,83,0.00,,,0.00,WeatherCatV1.14B232,2013-08-07 07:56:00,
2013-08-07 04:01:00,63.0,57.8,30.11,SW,214,0.0,0.0,83,0.00,,,0.00,WeatherCatV1.14B232,2013-08-07 08:01:00,
2013-08-07 04:06:00,63.1,57.8,30.12,SW,214,0.0,0.0,83,0.00,,,0.00,WeatherCatV1.14B232,2013-08-07 08:06:00,
2013-08-07 04:11:00,63.1,57.8,30.11,SW,214,0.0,0.0,83,0.00,,,0.00,WeatherCatV1.14B232,2013-08-07 08:11:00,
2013-08-07 04:16:00,63.1,57.8,30.11,SW,214,0.0,0.0,83,0.00,,,0.00,WeatherCatV1.14B232,2013-08-07 08:16:00,
2013-08-07 04:21:00,63.1,57.8,30.11,SW,214,0.0,0.0,83,0.00,,,0.00,WeatherCatV1.14B232,2013-08-07 08:21:00,
2013-08-07 04:26:00,63.1,57.8,30.11,SW,214,0.0,0.0,83,0.00,,,0.00,WeatherCatV1.14B232,2013-08-07 08:26:00,
2013-08-07 04:31:00,63.1,58.2,30.11,SW,214,0.0,0.0,84,0.00,,,0.00,WeatherCatV1.14B232,2013-08-07 08:31:00,
2013-08-07 04:36:00,63.0,58.1,30.11,SW,214,0.0,0.0,84,0.00,,,0.00,WeatherCatV1.14B232,2013-08-07 08:36:00,
2013-08-07 04:41:00,63.0,57.8,30.11,SW,214,0.0,0.0,83,0.00,,,0.00,WeatherCatV1.14B232,2013-08-07 08:41:00,
2013-08-07 04:46:00,63.0,58.4,30.11,SW,214,0.0,0.0,85,0.00,,,0.00,WeatherCatV1.14B232,2013-08-07 08:46:00,
2013-08-07 04:51:00,62.9,58.0,30.11,SW,214,0.0,0.0,84,0.00,,,0.00,WeatherCatV1.14B232,2013-08-07 08:51:00,
2013-08-07 04:56:00,62.9,58.0,30.11,SW,214,0.0,0.0,84,0.00,,,0.00,WeatherCatV1.14B232,2013-08-07 08:56:00,
2013-08-07 05:01:00,62.8,57.9,30.11,SW,214,0.0,0.0,84,0.00,,,0.00,WeatherCatV1.14B232,2013-08-07 09:01:00,
2013-08-07 05:06:00,62.7,58.1,30.11,SW,214,0.0,0.0,85,0.00,,,0.00,WeatherCatV1.14B232,2013-08-07 09:06:00,
2013-08-07 05:11:00,62.7,58.1,30.11,SW,214,0.0,0.0,85,0.00,,,0.00,WeatherCatV1.14B232,2013-08-07 09:11:00,
2013-08-07 05:16:00,62.6,58.0,30.11,SW,214,0.0,0.0,85,0.00,,,0.00,WeatherCatV1.14B232,2013-08-07 09:16:00,
2013-08-07 05:21:00,62.5,58.2,30.11,SW,214,0.0,0.0,86,0.00,,,0.00,WeatherCatV1.14B232,2013-08-07 09:21:00,
2013-08-07 05:26:00,62.4,58.2,30.11,SW,214,0.0,0.0,86,0.00,,,0.00,WeatherCatV1.14B232,2013-08-07 09:26:00,
2013-08-07 05:31:00,62.5,58.2,30.11,SW,214,0.0,0.0,86,0.00,,,0.00,WeatherCatV1.14B232,2013-08-07 09:31:00,
2013-08-07 05:36:00,62.6,58.3,30.11,SW,214,0.0,0.0,86,0.00,,,0.00,WeatherCatV1.14B232,2013-08-07 09:36:00,
2013-08-07 05:41:00,62.5,58.6,30.11,SW,214,0.0,0.0,87,0.00,,,0.00,WeatherCatV1.14B232,2013-08-07 09:41:00,
2013-08-07 05:46:00,62.5,58.6,30.11,SW,214,0.0,0.0,87,0.00,,,0.00,WeatherCatV1.14B232,2013-08-07 09:46:00,
2013-08-07 05:51:00,62.4,58.5,30.11,SW,214,0.0,0.0,87,0.00,,,0.00,WeatherCatV1.14B232,2013-08-07 09:51:00,
2013-08-07 05:56:00,62.4,58.5,30.11,SW,214,0.0,0.0,87,0.00,,,0.00,WeatherCatV1.14B232,2013-08-07 09:56:00,
2013-08-07 06:01:00,62.5,58.6,30.11,SW,214,0.0,0.0,87,0.00,,,0.00,WeatherCatV1.14B232,2013-08-07 10:01:00,
2013-08-07 06:06:00,62.5,58.6,30.11,SW,214,0.0,0.0,87,0.00,,,0.00,WeatherCatV1.14B232,2013-08-07 10:06:00,
2013-08-07 06:11:00,62.6,58.7,30.11,SW,214,0.0,0.0,87,0.00,,,0.00,WeatherCatV1.14B232,2013-08-07 10:11:00,
2013-08-07 06:16:00,62.7,58.8,30.11,SW,214,0.0,0.0,87,0.00,,,0.00,WeatherCatV1.14B232,2013-08-07 10:16:00,
2013-08-07 06:21:00,62.9,58.6,30.11,SW,214,0.0,0.0,86,0.00,,,0.00,WeatherCatV1.14B232,2013-08-07 10:21:00,
2013-08-07 06:26:00,62.9,59.0,30.11,SW,214,0.0,0.0,87,0.00,,,0.00,WeatherCatV1.14B232,2013-08-07 10:26:00,
2013-08-07 06:31:00,63.0,58.7,30.11,SW,214,0.0,0.0,86,0.00,,,0.00,WeatherCatV1.14B232,2013-08-07 10:31:00,
2013-08-07 06:36:00,63.0,59.1,30.11,SW,214,0.0,0.0,87,0.00,,,0.00,WeatherCatV1.14B232,2013-08-07 10:36:00,
2013-08-07 06:41:00,63.1,59.2,30.11,SW,214,0.0,0.0,87,0.00,,,0.00,WeatherCatV1.14B232,2013-08-07 10:41:00,
2013-08-07 06:46:00,63.2,59.6,30.11,SW,214,0.0,0.0,88,0.00,,,0.00,WeatherCatV1.14B232,2013-08-07 10:46:00,
2013-08-07 06:51:00,63.2,59.6,30.12,SW,214,0.0,0.0,88,0.00,,,0.00,WeatherCatV1.14B232,2013-08-07 10:51:00,
2013-08-07 06:56:00,63.2,59.6,30.12,SW,214,0.0,0.0,88,0.00,,,0.00,WeatherCatV1.14B232,2013-08-07 10:56:00,
2013-08-07 07:01:00,63.2,59.6,30.12,SW,214,0.0,0.0,88,0.00,,,0.00,WeatherCatV1.14B232,2013-08-07 11:01:00,
2013-08-07 07:06:00,63.1,59.5,30.12,SW,214,0.0,0.0,88,0.00,,,0.00,WeatherCatV1.14B232,2013-08-07 11:06:00,
2013-08-07 07:11:00,63.0,59.1,30.12,SW,214,0.0,1.0,87,0.00,,,0.00,WeatherCatV1.14B232,2013-08-07 11:11:00,
2013-08-07 07:16:00,62.9,59.0,30.12,SW,214,0.0,0.0,87,0.00,,,0.00,WeatherCatV1.14B232,2013-08-07 11:16:00,
2013-08-07 07:21:00,62.8,59.2,30.12,SW,214,0.0,0.0,88,0.00,,,0.00,WeatherCatV1.14B232,2013-08-07 11:21:00,
2013-08-07 07:26:00,62.7,59.1,30.12,SW,214,0.0,0.0,88,0.00,,,0.00,WeatherCatV1.14B232,2013-08-07 11:26:00,
2013-08-07 07:31:00,62.7,59.1,30.12,SW,214,0.0,0.0,88,0.00,,,0.00,WeatherCatV1.14B232,2013-08-07 11:31:00,
2013-08-07 07:36:00,62.7,59.1,30.12,SW,214,0.0,0.0,88,0.00,,,0.00,WeatherCatV1.14B232,2013-08-07 11:36:00,
2013-08-07 07:41:00,63.1,59.8,30.12,SW,214,0.0,0.0,89,0.00,,,0.00,WeatherCatV1.14B232,2013-08-07 11:41:00,
2013-08-07 07:46:00,63.6,60.3,30.12,SW,214,0.0,0.0,89,0.00,,,0.00,WeatherCatV1.14B232,2013-08-07 11:46:00,
2013-08-07 07:51:00,64.1,60.5,30.13,SW,214,0.0,0.0,88,0.00,,,0.00,WeatherCatV1.14B232,2013-08-07 11:51:00,
2013-08-07 07:56:00,64.5,60.2,30.12,SW,214,0.0,0.0,86,0.00,,,0.00,WeatherCatV1.14B232,2013-08-07 11:56:00,
2013-08-07 08:01:00,64.7,60.1,30.13,SW,214,0.0,0.0,85,0.00,,,0.00,WeatherCatV1.14B232,2013-08-07 12:01:00,
2013-08-07 08:06:00,64.9,59.6,30.13,SW,214,0.0,0.0,83,0.00,,,0.00,WeatherCatV1.14B232,2013-08-07 12:06:00,
2013-08-07 08:11:00,65.2,59.9,30.12,SW,214,0.0,0.0,83,0.00,,,0.00,WeatherCatV1.14B232,2013-08-07 12:11:00,
2013-08-07 08:16:00,65.5,60.2,30.12,SW,214,0.0,0.0,83,0.00,,,0.00,WeatherCatV1.14B232,2013-08-07 12:16:00,
2013-08-07 08:21:00,65.7,60.7,30.12,SW,214,0.0,1.0,84,0.00,,,0.00,WeatherCatV1.14B232,2013-08-07 12:21:00,
2013-08-07 08:26:00,65.8,60.1,30.13,SW,216,0.0,1.0,82,0.00,,,0.00,WeatherCatV1.14B232,2013-08-07 12:26:00,
2013-08-07 08:31:00,66.1,60.4,30.13,SW,216,0.0,0.0,82,0.00,,,0.00,WeatherCatV1.14B232,2013-08-07 12:31:00,
2013-08-07 08:36:00,66.2,60.2,30.12,ESE,115,0.0,1.0,81,0.00,,,0.00,WeatherCatV1.14B232,2013-08-07 12:36:00,
2013-08-07 08:41:00,66.4,60.4,30.12,ESE,115,1.0,1.0,81,0.00,,,0.00,WeatherCatV1.14B232,2013-08-07 12:41:00,
2013-08-07 08:46:00,66.7,60.7,30.12,ESE,115,0.0,0.0,81,0.00,,,0.00,WeatherCatV1.14B232,2013-08-07 12:46:00,
2013-08-07 08:51:00,67.0,61.7,30.12,ESE,115,0.0,1.0,83,0.00,,,0.00,WeatherCatV1.14B232,2013-08-07 12:51:00,
2013-08-07 08:56:00,67.5,61.5,30.12,ESE,115,2.0,2.0,81,0.00,,,0.00,WeatherCatV1.14B232,2013-08-07 12:56:00,
2013-08-07 09:01:00,67.8,61.4,30.12,ESE,105,1.0,2.0,80,0.00,,,0.00,WeatherCatV1.14B232,2013-08-07 13:01:00,
2013-08-07 09:06:00,68.0,61.6,30.11,ESE,105,0.0,1.0,80,0.00,,,0.00,WeatherCatV1.14B232,2013-08-07 13:06:00,
2013-08-07 09:11:00,68.3,61.2,30.11,SSE,163,0.0,4.0,78,0.00,,,0.00,WeatherCatV1.14B232,2013-08-07 13:11:00,
2013-08-07 09:16:00,68.4,60.9,30.11,SE,124,0.0,5.0,77,0.00,,,0.00,WeatherCatV1.14B232,2013-08-07 13:16:00,
2013-08-07 09:21:00,68.6,61.5,30.10,South,186,2.0,2.0,78,0.00,,,0.00,WeatherCatV1.14B232,2013-08-07 13:21:00,
2013-08-07 09:26:00,68.8,61.3,30.10,SSE,168,0.0,1.0,77,0.00,,,0.00,WeatherCatV1.14B232,2013-08-07 13:26:00,
2013-08-07 09:31:00,69.0,61.1,30.10,SSW,212,0.0,6.0,76,0.00,,,0.00,WeatherCatV1.14B232,2013-08-07 13:31:00,
2013-08-07 09:36:00,69.2,61.3,30.10,South,169,4.0,8.0,76,0.00,,,0.00,WeatherCatV1.14B232,2013-08-07 13:36:00,
2013-08-07 09:41:00,69.5,61.6,30.10,ESE,118,1.0,5.0,76,0.00,,,0.00,WeatherCatV1.14B232,2013-08-07 13:41:00,
2013-08-07 09:46:00,69.8,61.1,30.11,SSE,167,2.0,3.0,74,0.00,,,0.00,WeatherCatV1.14B232,2013-08-07 13:46:00,
2013-08-07 09:51:00,70.2,61.1,30.10,SSE,167,0.0,1.0,73,0.00,,,0.00,WeatherCatV1.14B232,2013-08-07 13:51:00,
2013-08-07 09:56:00,70.6,61.5,30.10,South,182,3.0,3.0,73,0.00,,,0.00,WeatherCatV1.14B232,2013-08-07 13:56:00,
2013-08-07 10:01:00,71.0,60.3,30.10,NE,47,2.0,4.0,69,0.00,,,0.00,WeatherCatV1.14B232,2013-08-07 14:01:00,
2013-08-07 10:06:00,71.5,60.8,30.09,SSE,159,4.0,5.0,69,0.00,,,0.00,WeatherCatV1.14B232,2013-08-07 14:06:00,
2013-08-07 10:11:00,71.9,60.8,30.09,East,90,0.0,6.0,68,0.00,,,0.00,WeatherCatV1.14B232,2013-08-07 14:11:00,
2013-08-07 10:16:00,72.3,59.9,30.09,SE,125,1.0,6.0,65,0.00,,,0.00,WeatherCatV1.14B232,2013-08-07 14:16:00,
2013-08-07 10:21:00,72.8,61.6,30.09,SE,125,0.0,1.0,68,0.00,,,0.00,WeatherCatV1.14B232,2013-08-07 14:21:00,
2013-08-07 10:26:00,73.3,59.5,30.09,SSE,159,0.0,8.0,62,0.00,,,0.00,WeatherCatV1.14B232,2013-08-07 14:26:00,
2013-08-07 10:31:00,73.4,59.6,30.09,SSW,207,1.0,6.0,62,0.00,,,0.00,WeatherCatV1.14B232,2013-08-07 14:31:00,
2013-08-07 10:36:00,73.6,59.3,30.09,South,191,0.0,4.0,61,0.00,,,0.00,WeatherCatV1.14B232,2013-08-07 14:36:00,
2013-08-07 10:41:00,73.9,60.9,30.09,SSW,207,3.0,4.0,64,0.00,,,0.00,WeatherCatV1.14B232,2013-08-07 14:41:00,
2013-08-07 10:46:00,73.9,59.6,30.08,SSE,163,1.0,7.0,61,0.00,,,0.00,WeatherCatV1.14B232,2013-08-07 14:46:00,
2013-08-07 10:51:00,74.0,59.7,30.08,SE,132,1.0,2.0,61,0.00,,,0.00,WeatherCatV1.14B232,2013-08-07 14:51:00,
2013-08-07 10:56:00,74.1,59.3,30.08,SE,134,1.0,4.0,60,0.00,,,0.00,WeatherCatV1.14B232,2013-08-07 14:56:00,
2013-08-07 11:01:00,74.4,59.6,30.08,North,355,2.0,4.0,60,0.00,,,0.00,WeatherCatV1.14B232,2013-08-07 15:01:00,
2013-08-07 11:06:00,74.8,59.0,30.08,SSW,202,4.0,6.0,58,0.00,,,0.00,WeatherCatV1.14B232,2013-08-07 15:06:00,
2013-08-07 11:11:00,75.0,58.7,30.08,SSE,167,1.0,6.0,57,0.00,,,0.00,WeatherCatV1.14B232,2013-08-07 15:11:00,
2013-08-07 11:16:00,75.2,58.9,30.08,WSW,250,1.0,3.0,57,0.00,,,0.00,WeatherCatV1.14B232,2013-08-07 15:16:00,
2013-08-07 11:21:00,75.5,59.7,30.08,SSW,197,1.0,4.0,58,0.00,,,0.00,WeatherCatV1.14B232,2013-08-07 15:21:00,
2013-08-07 11:26:00,75.8,59.9,30.08,SW,218,1.0,2.0,58,0.00,,,0.00,WeatherCatV1.14B232,2013-08-07 15:26:00,
2013-08-07 11:31:00,75.9,60.5,30.08,West,267,0.0,2.0,59,0.00,,,0.00,WeatherCatV1.14B232,2013-08-07 15:31:00,
2013-08-07 11:36:00,76.1,61.7,30.08,WSW,256,1.0,1.0,61,0.00,,,0.00,WeatherCatV1.14B232,2013-08-07 15:36:00,
2013-08-07 11:41:00,76.2,60.3,30.08,South,179,2.0,4.0,58,0.00,,,0.00,WeatherCatV1.14B232,2013-08-07 15:41:00,
2013-08-07 11:46:00,76.2,60.8,30.08,SSE,164,1.0,5.0,59,0.00,,,0.00,WeatherCatV1.14B232,2013-08-07 15:46:00,
2013-08-07 11:51:00,76.4,59.5,30.08,East,90,6.0,6.0,56,0.00,,,0.00,WeatherCatV1.14B232,2013-08-07 15:51:00,
2013-08-07 11:56:00,76.6,58.7,30.08,East,87,3.0,6.0,54,0.00,,,0.00,WeatherCatV1.14B232,2013-08-07 15:56:00,
2013-08-07 12:01:00,76.4,59.5,30.08,SSE,148,2.0,5.0,56,0.00,,,0.00,WeatherCatV1.14B232,2013-08-07 16:01:00,
2013-08-07 12:06:00,76.7,60.3,30.07,ESE,117,4.0,8.0,57,0.00,,,0.00,WeatherCatV1.14B232,2013-08-07 16:06:00,
2013-08-07 12:11:00,76.5,58.1,30.08,WSW,240,5.0,9.0,53,0.00,,,0.00,WeatherCatV1.14B232,2013-08-07 16:11:00,
2013-08-07 12:16:00,76.5,58.6,30.08,South,175,1.0,5.0,54,0.00,,,0.00,WeatherCatV1.14B232,2013-08-07 16:16:00,
2013-08-07 12:21:00,76.8,60.4,30.07,South,169,4.0,4.0,57,0.00,,,0.00,WeatherCatV1.14B232,2013-08-07 16:21:00,
2013-08-07 12:26:00,77.1,59.7,30.07,SSE,166,5.0,8.0,55,0.00,,,0.00,WeatherCatV1.14B232,2013-08-07 16:26:00,
2013-08-07 12:31:00,77.3,59.3,30.07,SSW,198,0.0,2.0,54,0.00,,,0.00,WeatherCatV1.14B232,2013-08-07 16:31:00,
2013-08-07 12:36:00,77.4,59.4,30.08,SSW,201,4.0,5.0,54,0.00,,,0.00,WeatherCatV1.14B232,2013-08-07 16:36:00,
2013-08-07 12:41:00,77.6,60.1,30.07,SE,139,0.0,4.0,55,0.00,,,0.00,WeatherCatV1.14B232,2013-08-07 16:41:00,
2013-08-07 12:46:00,78.0,57.8,30.07,SSE,163,1.0,6.0,50,0.00,,,0.00,WeatherCatV1.14B232,2013-08-07 16:46:00,
2013-08-07 12:51:00,78.1,57.9,30.07,SW,227,3.0,6.0,50,0.00,,,0.00,WeatherCatV1.14B232,2013-08-07 16:51:00,
2013-08-07 12:56:00,78.3,58.1,30.07,SSE,157,4.0,5.0,50,0.00,,,0.00,WeatherCatV1.14B232,2013-08-07 16:56:00,
2013-08-07 13:01:00,78.6,60.5,30.07,SSE,167,4.0,4.0,54,0.00,,,0.00,WeatherCatV1.14B232,2013-08-07 17:01:00,
2013-08-07 13:06:00,78.9,58.7,30.07,SSE,157,0.0,4.0,50,0.00,,,0.00,WeatherCatV1.14B232,2013-08-07 17:06:00,
2013-08-07 13:11:00,79.0,59.8,30.07,SW,226,2.0,3.0,52,0.00,,,0.00,WeatherCatV1.14B232,2013-08-07 17:11:00,
2013-08-07 13:16:00,79.1,59.9,30.07,SE,136,1.0,6.0,52,0.00,,,0.00,WeatherCatV1.14B232,2013-08-07 17:16:00,
2013-08-07 13:21:00,78.6,59.5,30.07,SW,223,4.0,5.0,52,0.00,,,0.00,WeatherCatV1.14B232,2013-08-07 17:21:00,
2013-08-07 13:26:00,78.4,59.3,30.07,SSW,194,1.0,5.0,52,0.00,,,0.00,WeatherCatV1.14B232,2013-08-07 17:26:00,
2013-08-07 13:31:00,78.4,58.8,30.07,SW,225,1.0,6.0,51,0.00,,,0.00,WeatherCatV1.14B232,2013-08-07 17:31:00,
2013-08-07 13:36:00,78.7,60.1,30.07,SE,144,2.0,6.0,53,0.00,,,0.00,WeatherCatV1.14B232,2013-08-07 17:36:00,
2013-08-07 13:41:00,78.6,60.0,30.07,SW,215,3.0,5.0,53,0.00,,,0.00,WeatherCatV1.14B232,2013-08-07 17:41:00,
2013-08-07 13:46:00,78.3,59.2,30.07,SSW,205,2.0,6.0,52,0.00,,,0.00,WeatherCatV1.14B232,2013-08-07 17:46:00,
2013-08-07 13:51:00,78.0,58.9,30.08,South,175,2.0,8.0,52,0.00,,,0.00,WeatherCatV1.14B232,2013-08-07 17:51:00,
2013-08-07 13:53:00,77.7,58.7,30.08,SE,146,7.0,8.0,52,0.00,,,0.00,WeatherCatV1.14B232,2013-08-07 17:53:00,
2013-08-07 13:58:00,77.0,59.6,30.08,SSW,194,3.0,6.0,55,0.00,,,0.00,WeatherCatV1.14B232,2013-08-07 17:58:00,
2013-08-07 14:03:00,76.7,58.3,30.08,SSE,167,2.0,7.0,53,0.00,,,0.00,WeatherCatV1.14B232,2013-08-07 18:03:00,
2013-08-07 14:08:00,76.1,58.7,30.08,SSE,160,1.0,7.0,55,0.00,,,0.00,WeatherCatV1.14B232,2013-08-07 18:08:00,
2013-08-07 14:13:00,75.8,59.5,30.08,South,188,2.0,7.0,57,0.00,,,0.00,WeatherCatV1.14B232,2013-08-07 18:13:00,
2013-08-07 14:18:00,75.4,60.1,30.08,SW,217,2.0,5.0,59,0.00,,,0.00,WeatherCatV1.14B232,2013-08-07 18:18:00,
2013-08-07 14:23:00,75.0,59.7,30.07,SW,221,1.0,4.0,59,0.00,,,0.00,WeatherCatV1.14B232,2013-08-07 18:23:00,
2013-08-07 14:28:00,74.7,59.9,30.08,SSW,202,1.0,4.0,60,0.00,,,0.00,WeatherCatV1.14B232,2013-08-07 18:28:00,
2013-08-07 14:33:00,74.8,61.3,30.08,SSW,210,2.0,3.0,63,0.00,,,0.00,WeatherCatV1.14B232,2013-08-07 18:33:00,
2013-08-07 14:38:00,75.2,60.3,30.08,South,180,2.0,6.0,60,0.00,,,0.00,WeatherCatV1.14B232,2013-08-07 18:38:00,
2013-08-07 14:43:00,75.4,61.0,30.08,SSW,206,1.0,5.0,61,0.00,,,0.00,WeatherCatV1.14B232,2013-08-07 18:43:00,
2013-08-07 14:48:00,75.4,61.0,30.08,West,278,0.0,4.0,61,0.00,,,0.00,WeatherCatV1.14B232,2013-08-07 18:48:00,
2013-08-07 14:53:00,75.5,60.6,30.08,SSE,153,0.0,4.0,60,0.00,,,0.00,WeatherCatV1.14B232,2013-08-07 18:53:00,
2013-08-07 14:58:00,75.3,60.4,30.07,SSE,166,0.0,2.0,60,0.00,,,0.00,WeatherCatV1.14B232,2013-08-07 18:58:00,
2013-08-07 15:03:00,75.1,60.2,30.07,South,184,4.0,6.0,60,0.00,,,0.00,WeatherCatV1.14B232,2013-08-07 19:03:00,
2013-08-07 15:08:00,74.7,60.8,30.07,SSE,152,0.0,2.0,62,0.00,,,0.00,WeatherCatV1.14B232,2013-08-07 19:08:00,
2013-08-07 15:13:00,74.6,61.6,30.07,SSE,149,0.0,2.0,64,0.00,,,0.00,WeatherCatV1.14B232,2013-08-07 19:13:00,
2013-08-07 15:18:00,74.7,60.8,30.07,SW,218,1.0,2.0,62,0.00,,,0.00,WeatherCatV1.14B232,2013-08-07 19:18:00,
2013-08-07 15:23:00,74.9,61.4,30.06,SSW,192,0.0,1.0,63,0.00,,,0.00,WeatherCatV1.14B232,2013-08-07 19:23:00,
2013-08-07 15:28:00,74.9,61.4,30.06,SSE,159,0.0,2.0,63,0.00,,,0.00,WeatherCatV1.14B232,2013-08-07 19:28:00,
2013-08-07 15:33:00,74.8,60.4,30.06,South,189,0.0,6.0,61,0.00,,,0.00,WeatherCatV1.14B232,2013-08-07 19:33:00,
2013-08-07 15:38:00,74.9,61.0,30.06,SW,214,3.0,6.0,62,0.00,,,0.00,WeatherCatV1.14B232,2013-08-07 19:38:00,
2013-08-07 15:43:00,75.4,61.0,30.06,SE,142,2.0,7.0,61,0.00,,,0.00,WeatherCatV1.14B232,2013-08-07 19:43:00,
2013-08-07 15:48:00,75.4,61.9,30.06,South,178,2.0,4.0,63,0.00,,,0.00,WeatherCatV1.14B232,2013-08-07 19:48:00,
2013-08-07 15:53:00,75.3,61.4,30.05,SSW,194,2.0,3.0,62,0.00,,,0.00,WeatherCatV1.14B232,2013-08-07 19:53:00,
2013-08-07 15:58:00,75.3,61.4,30.05,West,263,2.0,5.0,62,0.00,,,0.00,WeatherCatV1.14B232,2013-08-07 19:58:00,
2013-08-07 16:03:00,75.2,60.8,30.05,SSW,199,2.0,7.0,61,0.00,,,0.00,WeatherCatV1.14B232,2013-08-07 20:03:00,
2013-08-07 16:08:00,75.1,61.2,30.05,SSE,157,1.0,5.0,62,0.00,,,0.00,WeatherCatV1.14B232,2013-08-07 20:08:00,
2013-08-07 16:13:00,75.2,61.3,30.05,SSE,165,0.0,2.0,62,0.00,,,0.00,WeatherCatV1.14B232,2013-08-07 20:13:00,
2013-08-07 16:18:00,75.2,61.7,30.05,SSW,209,4.0,4.0,63,0.00,,,0.00,WeatherCatV1.14B232,2013-08-07 20:18:00,
2013-08-07 16:23:00,75.1,60.7,30.05,South,171,4.0,7.0,61,0.00,,,0.00,WeatherCatV1.14B232,2013-08-07 20:23:00,
2013-08-07 16:28:00,75.1,60.7,30.05,South,190,0.0,4.0,61,0.00,,,0.00,WeatherCatV1.14B232,2013-08-07 20:28:00,
2013-08-07 16:33:00,75.0,60.6,30.05,SSW,192,1.0,3.0,61,0.00,,,0.00,WeatherCatV1.14B232,2013-08-07 20:33:00,
2013-08-07 16:38:00,75.0,61.1,30.05,South,175,0.0,4.0,62,0.00,,,0.00,WeatherCatV1.14B232,2013-08-07 20:38:00,
2013-08-07 16:43:00,75.1,61.2,30.05,South,174,0.0,6.0,62,0.00,,,0.00,WeatherCatV1.14B232,2013-08-07 20:43:00,
2013-08-07 16:48:00,75.2,61.3,30.05,WSW,254,4.0,5.0,62,0.00,,,0.00,WeatherCatV1.14B232,2013-08-07 20:48:00,
2013-08-07 16:53:00,74.9,61.4,30.05,South,186,1.0,3.0,63,0.00,,,0.00,WeatherCatV1.14B232,2013-08-07 20:53:00,
2013-08-07 16:58:00,74.7,60.8,30.04,South,191,6.0,6.0,62,0.00,,,0.00,WeatherCatV1.14B232,2013-08-07 20:58:00,
2013-08-07 17:03:00,74.3,60.9,30.04,South,177,1.0,4.0,63,0.00,,,0.00,WeatherCatV1.14B232,2013-08-07 21:03:00,
2013-08-07 17:08:00,74.1,60.7,30.04,SSE,167,1.0,4.0,63,0.00,,,0.00,WeatherCatV1.14B232,2013-08-07 21:08:00,
2013-08-07 17:13:00,73.9,61.4,30.04,SSW,200,0.0,3.0,65,0.00,,,0.00,WeatherCatV1.14B232,2013-08-07 21:13:00,
2013-08-07 17:18:00,73.7,61.6,30.04,SSW,209,2.0,2.0,66,0.00,,,0.00,WeatherCatV1.14B232,2013-08-07 21:18:00,
2013-08-07 17:23:00,73.6,60.7,30.03,South,173,1.0,7.0,64,0.00,,,0.00,WeatherCatV1.14B232,2013-08-07 21:23:00,
2013-08-07 17:28:00,73.6,61.1,30.03,SSW,205,0.0,4.0,65,0.00,,,0.00,WeatherCatV1.14B232,2013-08-07 21:28:00,
2013-08-07 17:33:00,73.5,61.4,30.03,SSW,205,0.0,2.0,66,0.00,,,0.00,WeatherCatV1.14B232,2013-08-07 21:33:00,
2013-08-07 17:38:00,73.3,61.2,30.03,ENE,68,0.0,1.0,66,0.00,,,0.00,WeatherCatV1.14B232,2013-08-07 21:38:00,
2013-08-07 17:43:00,73.1,61.0,30.03,SE,129,2.0,4.0,66,0.00,,,0.00,WeatherCatV1.14B232,2013-08-07 21:43:00,
2013-08-07 17:48:00,72.9,61.3,30.03,East,83,0.0,2.0,67,0.00,,,0.00,WeatherCatV1.14B232,2013-08-07 21:48:00,
2013-08-07 17:53:00,72.8,61.2,30.03,SSE,162,2.0,2.0,67,0.00,,,0.00,WeatherCatV1.14B232,2013-08-07 21:53:00,
2013-08-07 17:58:00,72.8,60.8,30.03,South,184,0.0,3.0,66,0.00,,,0.00,WeatherCatV1.14B232,2013-08-07 21:58:00,
2013-08-07 18:03:00,72.7,60.7,30.03,SE,138,0.0,5.0,66,0.00,,,0.00,WeatherCatV1.14B232,2013-08-07 22:03:00,
2013-08-07 18:08:00,72.6,61.0,30.03,SE,138,0.0,1.0,67,0.00,,,0.00,WeatherCatV1.14B232,2013-08-07 22:08:00,
2013-08-07 18:13:00,72.6,61.4,30.03,SE,138,0.0,1.0,68,0.00,,,0.00,WeatherCatV1.14B232,2013-08-07 22:13:00,
2013-08-07 18:18:00,72.6,60.6,30.03,SW,218,0.0,3.0,66,0.00,,,0.00,WeatherCatV1.14B232,2013-08-07 22:18:00,
2013-08-07 18:23:00,72.6,61.4,30.03,SW,219,0.0,0.0,68,0.00,,,0.00,WeatherCatV1.14B232,2013-08-07 22:23:00,
2013-08-07 18:28:00,72.5,60.9,30.03,SSW,210,2.0,6.0,67,0.00,,,0.00,WeatherCatV1.14B232,2013-08-07 22:28:00,
2013-08-07 18:33:00,72.4,61.2,30.03,SSE,155,0.0,1.0,68,0.00,,,0.00,WeatherCatV1.14B232,2013-08-07 22:33:00,
2013-08-07 18:38:00,72.2,61.0,30.03,East,99,0.0,4.0,68,0.00,,,0.00,WeatherCatV1.14B232,2013-08-07 22:38:00,
2013-08-07 18:43:00,72.1,60.9,30.03,ESE,109,0.0,1.0,68,0.00,,,0.00,WeatherCatV1.14B232,2013-08-07 22:43:00,
2013-08-07 18:48:00,72.0,61.3,30.03,East,101,0.0,0.0,69,0.00,,,0.00,WeatherCatV1.14B232,2013-08-07 22:48:00,
2013-08-07 18:53:00,71.9,60.8,30.03,NE,49,0.0,5.0,68,0.00,,,0.00,WeatherCatV1.14B232,2013-08-07 22:53:00,
2013-08-07 18:58:00,71.8,61.1,30.03,NNE,12,0.0,0.0,69,0.00,,,0.00,WeatherCatV1.14B232,2013-08-07 22:58:00,
2013-08-07 19:03:00,71.7,61.0,30.03,East,98,1.0,5.0,69,0.00,,,0.00,WeatherCatV1.14B232,2013-08-07 23:03:00,
2013-08-07 19:08:00,71.6,60.5,30.02,East,98,0.0,1.0,68,0.00,,,0.00,WeatherCatV1.14B232,2013-08-07 23:08:00,
2013-08-07 19:13:00,71.4,60.7,30.02,East,98,0.0,1.0,69,0.00,,,0.00,WeatherCatV1.14B232,2013-08-07 23:13:00,
2013-08-07 19:18:00,71.3,61.0,30.02,East,90,0.0,2.0,70,0.00,,,0.00,WeatherCatV1.14B232,2013-08-07 23:18:00,
2013-08-07 19:23:00,71.2,60.9,30.02,East,93,0.0,1.0,70,0.00,,,0.00,WeatherCatV1.14B232,2013-08-07 23:23:00,
2013-08-07 19:28:00,71.2,60.9,30.02,East,93,1.0,1.0,70,0.00,,,0.00,WeatherCatV1.14B232,2013-08-07 23:28:00,
2013-08-07 19:33:00,71.1,60.8,30.03,South,174,4.0,4.0,70,0.00,,,0.00,WeatherCatV1.14B232,2013-08-07 23:33:00,
2013-08-07 19:38:00,71.0,60.7,30.03,South,191,0.0,3.0,70,0.00,,,0.00,WeatherCatV1.14B232,2013-08-07 23:38:00,
2013-08-07 19:43:00,70.9,60.6,30.02,SW,222,0.0,2.0,70,0.00,,,0.00,WeatherCatV1.14B232,2013-08-07 23:43:00,
2013-08-07 19:48:00,70.8,60.5,30.02,SE,128,2.0,2.0,70,0.00,,,0.00,WeatherCatV1.14B232,2013-08-07 23:48:00,
2013-08-07 19:53:00,70.7,60.4,30.02,SE,128,0.0,1.0,70,0.00,,,0.00,WeatherCatV1.14B232,2013-08-07 23:53:00,
2013-08-07 19:58:00,70.7,60.8,30.03,SE,124,0.0,4.0,71,0.00,,,0.00,WeatherCatV1.14B232,2013-08-07 23:58:00,
2013-08-07 20:03:00,70.6,60.7,30.03,SE,124,0.0,1.0,71,0.00,,,0.00,WeatherCatV1.14B232,2013-08-08 00:03:00,
2013-08-07 20:08:00,70.6,60.7,30.03,SW,217,0.0,2.0,71,0.00,,,0.00,WeatherCatV1.14B232,2013-08-08 00:08:00,
2013-08-07 20:13:00,70.5,60.6,30.03,West,271,1.0,2.0,71,0.00,,,0.00,WeatherCatV1.14B232,2013-08-08 00:13:00,
2013-08-07 20:18:00,70.5,61.0,30.02,ESE,117,0.0,4.0,72,0.00,,,0.00,WeatherCatV1.14B232,2013-08-08 00:18:00,
2013-08-07 20:23:00,70.4,60.9,30.02,ESE,117,1.0,1.0,72,0.00,,,0.00,WeatherCatV1.14B232,2013-08-08 00:23:00,
2013-08-07 20:28:00,70.3,61.2,30.02,ESE,117,0.0,0.0,73,0.00,,,0.00,WeatherCatV1.14B232,2013-08-08 00:28:00,
2013-08-07 20:33:00,70.1,60.6,30.02,ESE,117,0.0,2.0,72,0.00,,,0.00,WeatherCatV1.14B232,2013-08-08 00:33:00,
2013-08-07 20:38:00,70.0,60.9,30.02,ESE,117,0.0,2.0,73,0.00,,,0.00,WeatherCatV1.14B232,2013-08-08 00:38:00,
2013-08-07 20:43:00,69.9,61.2,30.02,ESE,117,0.0,1.0,74,0.00,,,0.00,WeatherCatV1.14B232,2013-08-08 00:43:00,
2013-08-07 20:48:00,69.8,61.1,30.02,ESE,117,0.0,1.0,74,0.00,,,0.00,WeatherCatV1.14B232,2013-08-08 00:48:00,
2013-08-07 20:53:00,69.6,60.9,30.02,ESE,117,1.0,4.0,74,0.00,,,0.00,WeatherCatV1.14B232,2013-08-08 00:53:00,
2013-08-07 20:58:00,69.5,60.8,30.02,ESE,117,0.0,2.0,74,0.00,,,0.00,WeatherCatV1.14B232,2013-08-08 00:58:00,
2013-08-07 21:03:00,69.5,61.2,30.02,ESE,115,2.0,4.0,75,0.00,,,0.00,WeatherCatV1.14B232,2013-08-08 01:03:00,
2013-08-07 21:08:00,69.5,61.2,30.02,SSW,213,1.0,11.0,75,0.00,,,0.00,WeatherCatV1.14B232,2013-08-08 01:08:00,
2013-08-07 21:13:00,69.5,61.2,30.02,SE,136,1.0,5.0,75,0.00,,,0.00,WeatherCatV1.14B232,2013-08-08 01:13:00,
2013-08-07 21:18:00,69.5,61.2,30.02,East,88,1.0,5.0,75,0.00,,,0.00,WeatherCatV1.14B232,2013-08-08 01:18:00,
2013-08-07 21:23:00,69.4,61.1,30.02,East,88,0.0,1.0,75,0.00,,,0.00,WeatherCatV1.14B232,2013-08-08 01:23:00,
2013-08-07 21:28:00,69.3,61.4,30.02,East,89,1.0,3.0,76,0.00,,,0.00,WeatherCatV1.14B232,2013-08-08 01:28:00,
2013-08-07 21:33:00,69.2,61.3,30.02,East,97,0.0,4.0,76,0.00,,,0.00,WeatherCatV1.14B232,2013-08-08 01:33:00,
2013-08-07 21:38:00,69.0,61.1,30.02,East,97,0.0,2.0,76,0.00,,,0.00,WeatherCatV1.14B232,2013-08-08 01:38:00,
2013-08-07 21:43:00,68.9,61.4,30.02,East,97,0.0,1.0,77,0.00,,,0.00,WeatherCatV1.14B232,2013-08-08 01:43:00,
2013-08-07 21:48:00,68.8,61.3,30.02,East,92,1.0,4.0,77,0.00,,,0.00,WeatherCatV1.14B232,2013-08-08 01:48:00,
2013-08-07 21:53:00,68.6,61.5,30.03,East,92,0.0,1.0,78,0.00,,,0.00,WeatherCatV1.14B232,2013-08-08 01:53:00,
2013-08-07 21:58:00,68.6,61.5,30.02,ESE,111,0.0,5.0,78,0.00,,,0.00,WeatherCatV1.14B232,2013-08-08 01:58:00,
2013-08-07 22:03:00,68.5,61.7,30.02,ESE,111,0.0,1.0,79,0.00,,,0.00,WeatherCatV1.14B232,2013-08-08 02:03:00,
2013-08-07 22:08:00,68.4,61.6,30.02,ESE,111,0.0,0.0,79,0.00,,,0.00,WeatherCatV1.14B232,2013-08-08 02:08:00,
2013-08-07 22:13:00,68.4,61.6,30.02,ESE,111,0.0,1.0,79,0.00,,,0.00,WeatherCatV1.14B232,2013-08-08 02:13:00,
2013-08-07 22:18:00,68.3,61.9,30.01,ESE,111,0.0,0.0,80,0.00,,,0.00,WeatherCatV1.14B232,2013-08-08 02:18:00,
2013-08-07 22:23:00,68.2,61.8,30.01,South,185,1.0,3.0,80,0.00,,,0.00,WeatherCatV1.14B232,2013-08-08 02:23:00,
2013-08-07 22:28:00,68.2,61.8,30.02,SE,136,0.0,4.0,80,0.00,,,0.00,WeatherCatV1.14B232,2013-08-08 02:28:00,
2013-08-07 22:33:00,68.1,62.0,30.02,SE,136,0.0,0.0,81,0.00,,,0.00,WeatherCatV1.14B232,2013-08-08 02:33:00,
2013-08-07 22:38:00,68.1,62.0,30.02,NE,46,0.0,1.0,81,0.00,,,0.00,WeatherCatV1.14B232,2013-08-08 02:38:00,
2013-08-07 22:43:00,68.0,62.3,30.03,NE,46,0.0,2.0,82,0.00,,,0.00,WeatherCatV1.14B232,2013-08-08 02:43:00,
2013-08-07 22:48:00,67.8,62.1,30.02,NE,46,0.0,1.0,82,0.00,,,0.00,WeatherCatV1.14B232,2013-08-08 02:48:00,
2013-08-07 22:53:00,67.7,62.0,30.03,NE,46,1.0,1.0,82,0.00,,,0.00,WeatherCatV1.14B232,2013-08-08 02:53:00,
2013-08-07 22:58:00,67.6,62.2,30.03,NE,46,1.0,1.0,83,0.00,,,0.00,WeatherCatV1.14B232,2013-08-08 02:58:00,
2013-08-07 23:03:00,67.6,62.6,30.03,NE,46,0.0,0.0,84,0.00,,,0.00,WeatherCatV1.14B232,2013-08-08 03:03:00,
2013-08-07 23:08:00,67.6,62.2,30.02,SW,218,0.0,4.0,83,0.00,,,0.00,WeatherCatV1.14B232,2013-08-08 03:08:00,
2013-08-07 23:13:00,67.9,62.5,30.02,SSW,211,0.0,4.0,83,0.00,,,0.00,WeatherCatV1.14B232,2013-08-08 03:13:00,
2013-08-07 23:18:00,68.2,62.8,30.02,SSW,204,0.0,1.0,83,0.00,,,0.00,WeatherCatV1.14B232,2013-08-08 03:18:00,
2013-08-07 23:23:00,68.5,62.8,30.02,South,176,1.0,6.0,82,0.00,,,0.00,WeatherCatV1.14B232,2013-08-08 03:23:00,
2013-08-07 23:28:00,68.8,63.1,30.02,South,172,5.0,5.0,82,0.00,,,0.00,WeatherCatV1.14B232,2013-08-08 03:28:00,
2013-08-07 23:33:00,69.0,63.3,30.02,South,169,0.0,4.0,82,0.00,,,0.00,WeatherCatV1.14B232,2013-08-08 03:33:00,
2013-08-07 23:38:00,69.1,63.0,30.02,South,181,1.0,3.0,81,0.00,,,0.00,WeatherCatV1.14B232,2013-08-08 03:38:00,
2013-08-07 23:43:00,69.1,63.0,30.01,South,182,0.0,6.0,81,0.00,,,0.00,WeatherCatV1.14B232,2013-08-08 03:43:00,
2013-08-07 23:48:00,69.2,63.1,30.01,SSE,165,5.0,7.0,81,0.00,,,0.00,WeatherCatV1.14B232,2013-08-08 03:48:00,
2013-08-07 23:53:00,69.2,63.1,30.01,SSE,157,0.0,5.0,81,0.00,,,0.00,WeatherCatV1.14B232,2013-08-08 03:53:00,
2013-08-07 23:58:00,69.3,63.2,30.01,SSW,211,1.0,3.0,81,0.00,,,0.00,WeatherCatV1.14B232,2013-08-08 03:58:00,